Hourly Weather Juatuba

Today, 26 November, Thursday

Time Temperature Precipitation Wind Pressure Humidity
00:00 +19°C° 0 mm 2 mps 701 mmHg 91%
01:00 +19°C° 0 mm 2 mps 700 mmHg 91%
02:00 +19°C° 0 mm 2 mps 700 mmHg 92%
03:00 +19°C° 0 mm 2 mps 700 mmHg 92%
04:00 +19°C° 0 mm 2 mps 700 mmHg 91%
05:00 +19°C° 0 mm 2 mps 701 mmHg 91%
06:00 +19°C° 0 mm 2 mps 701 mmHg 90%
07:00 +21°C° 0 mm 3 mps 702 mmHg 83%
08:00 +24°C° 0 mm 3 mps 702 mmHg 76%
09:00 +25°C° 0 mm 3 mps 702 mmHg 69%
10:00 +27°C° 0 mm 3 mps 702 mmHg 65%
11:00 +28°C° 0 mm 3 mps 702 mmHg 60%
12:00 +29°C° 0 mm 2 mps 702 mmHg 56%
13:00 +29°C° 0.2 mm 2 mps 701 mmHg 56%
14:00 +29°C° 0.2 mm 2 mps 701 mmHg 56%
15:00 +29°C° 0.2 mm 2 mps 700 mmHg 56%
16:00 +28°C° 0.3 mm 2 mps 700 mmHg 62%
17:00 +26°C° 0.3 mm 1 mps 700 mmHg 69%
18:00 +25°C° 0.3 mm 1 mps 700 mmHg 75%
19:00 +24°C° 0 mm 1 mps 700 mmHg 77%
20:00 +23°C° 0 mm 1 mps 700 mmHg 79%
21:00 +22°C° 0 mm 1 mps 700 mmHg 81%
22:00 +21°C° 0 mm 1 mps 700 mmHg 84%
23:00 +21°C° 0 mm 1 mps 700 mmHg 87%

Tomorrow, 27 November, Friday

Time Temperature Precipitation Wind Pressure Humidity
00:00 +20°C° 0 mm 1 mps 700 mmHg 90%
01:00 +20°C° 0 mm 1 mps 700 mmHg 91%
02:00 +19°C° 0 mm 1 mps 700 mmHg 92%
03:00 +19°C° 0 mm 1 mps 700 mmHg 92%
04:00 +19°C° 0 mm 1 mps 700 mmHg 92%
05:00 +19°C° 0 mm 1 mps 700 mmHg 91%
06:00 +20°C° 0 mm 1 mps 700 mmHg 90%
07:00 +21°C° 0 mm 2 mps 701 mmHg 81%
08:00 +24°C° 0 mm 2 mps 701 mmHg 73%
09:00 +26°C° 0 mm 3 mps 702 mmHg 64%
10:00 +27°C° 0 mm 3 mps 702 mmHg 60%
11:00 +28°C° 0 mm 2 mps 702 mmHg 56%
12:00 +30°C° 0 mm 2 mps 701 mmHg 52%
13:00 +29°C° 0 mm 2 mps 701 mmHg 54%
14:00 +29°C° 0 mm 2 mps 700 mmHg 55%
15:00 +29°C° 0 mm 1 mps 700 mmHg 56%
16:00 +28°C° 0.1 mm 1 mps 700 mmHg 62%
17:00 +26°C° 0.1 mm 1 mps 700 mmHg 67%
18:00 +25°C° 0.1 mm 1 mps 699 mmHg 72%
19:00 +24°C° 0 mm 2 mps 700 mmHg 75%
20:00 +23°C° 0 mm 2 mps 700 mmHg 77%
21:00 +21°C° 0 mm 2 mps 701 mmHg 80%
22:00 +20°C° 0 mm 2 mps 701 mmHg 82%
23:00 +20°C° 0 mm 2 mps 701 mmHg 84%

Day after tomorrow, 28 November, Saturday

Time Temperature Precipitation Wind Pressure Humidity
00:00 +20°C° 0 mm 1 mps 700 mmHg 86%
01:00 +19°C° 0 mm 2 mps 700 mmHg 88%
02:00 +18°C° 0 mm 2 mps 700 mmHg 89%
03:00 +18°C° 0 mm 2 mps 700 mmHg 91%
04:00 +18°C° 0 mm 2 mps 700 mmHg 91%
05:00 +19°C° 0 mm 2 mps 701 mmHg 90%
06:00 +19°C° 0 mm 2 mps 701 mmHg 90%
07:00 +21°C° 0 mm 2 mps 701 mmHg 83%
08:00 +24°C° 0 mm 3 mps 702 mmHg 76%
09:00 +26°C° 0 mm 4 mps 703 mmHg 69%
10:00 +27°C° 0 mm 4 mps 702 mmHg 63%
11:00 +28°C° 0 mm 4 mps 702 mmHg 57%
12:00 +29°C° 0 mm 4 mps 702 mmHg 51%
13:00 +29°C° 0 mm 4 mps 702 mmHg 51%
14:00 +29°C° 0 mm 4 mps 701 mmHg 50%
15:00 +29°C° 0 mm 4 mps 701 mmHg 50%
16:00 +28°C° 0 mm 3 mps 701 mmHg 58%
17:00 +26°C° 0 mm 3 mps 701 mmHg 65%
18:00 +25°C° 0 mm 3 mps 701 mmHg 72%
19:00 +24°C° 0 mm 3 mps 701 mmHg 75%
20:00 +22°C° 0 mm 3 mps 701 mmHg 78%
21:00 +21°C° 0 mm 3 mps 702 mmHg 80%
22:00 +20°C° 0 mm 3 mps 701 mmHg 83%
23:00 +20°C° 0 mm 3 mps 701 mmHg 86%

29 November, Sunday

Time Temperature Precipitation Wind Pressure Humidity
00:00 +20°C° 0 mm 3 mps 701 mmHg 89%
01:00 +19°C° 0 mm 2 mps 701 mmHg 90%
02:00 +19°C° 0 mm 2 mps 701 mmHg 91%
03:00 +18°C° 0 mm 2 mps 700 mmHg 92%
04:00 +18°C° 0 mm 2 mps 701 mmHg 92%
05:00 +19°C° 0 mm 2 mps 701 mmHg 91%
06:00 +19°C° 0 mm 2 mps 702 mmHg 90%
07:00 +21°C° 0 mm 2 mps 702 mmHg 82%
08:00 +22°C° 0 mm 3 mps 703 mmHg 73%
09:00 +25°C° 0 mm 4 mps 703 mmHg 64%
10:00 +26°C° 0 mm 4 mps 703 mmHg 59%
11:00 +28°C° 0 mm 4 mps 703 mmHg 54%
12:00 +29°C° 0 mm 4 mps 703 mmHg 49%
13:00 +29°C° 0 mm 4 mps 702 mmHg 49%
14:00 +29°C° 0 mm 4 mps 701 mmHg 48%
15:00 +29°C° 0 mm 3 mps 701 mmHg 48%
16:00 +28°C° 0 mm 3 mps 701 mmHg 55%
17:00 +26°C° 0 mm 2 mps 700 mmHg 62%
18:00 +25°C° 0 mm 1 mps 700 mmHg 68%
19:00 +24°C° 0 mm 1 mps 700 mmHg 71%
20:00 +23°C° 0 mm 1 mps 701 mmHg 74%
21:00 +22°C° 0 mm 1 mps 701 mmHg 77%
22:00 +20°C° 0 mm 2 mps 701 mmHg 80%
23:00 +20°C° 0 mm 2 mps 701 mmHg 83%

30 November, Monday

Time Temperature Precipitation Wind Pressure Humidity
00:00 +20°C° 0 mm 2 mps 700 mmHg 85%
01:00 +19°C° 0 mm 2 mps 700 mmHg 87%
02:00 +19°C° 0 mm 2 mps 700 mmHg 88%
03:00 +19°C° 0 mm 2 mps 700 mmHg 89%
04:00 +19°C° 0 mm 2 mps 700 mmHg 89%
05:00 +19°C° 0 mm 2 mps 700 mmHg 88%
06:00 +19°C° 0 mm 2 mps 701 mmHg 88%
07:00 +21°C° 0 mm 2 mps 701 mmHg 79%
08:00 +24°C° 0 mm 3 mps 701 mmHg 71%
09:00 +26°C° 0 mm 3 mps 702 mmHg 62%
10:00 +27°C° 0 mm 3 mps 701 mmHg 57%
11:00 +29°C° 0 mm 3 mps 701 mmHg 53%
12:00 +30°C° 0 mm 2 mps 701 mmHg 48%
13:00 +30°C° 0 mm 2 mps 700 mmHg 49%
14:00 +30°C° 0 mm 2 mps 700 mmHg 51%
15:00 +29°C° 0 mm 2 mps 699 mmHg 53%
16:00 +28°C° 0 mm 2 mps 699 mmHg 57%
17:00 +27°C° 0 mm 1 mps 699 mmHg 62%
18:00 +26°C° 0 mm 1 mps 698 mmHg 67%
19:00 +25°C° 0 mm 1 mps 698 mmHg 69%
20:00 +24°C° 0 mm 1 mps 699 mmHg 70%
21:00 +23°C° 0 mm 1 mps 699 mmHg 72%
22:00 +23°C° 0 mm 1 mps 699 mmHg 74%
23:00 +22°C° 0 mm 1 mps 699 mmHg 77%

1 December, Tuesday

Time Temperature Precipitation Wind Pressure Humidity
00:00 +20°C° 0 mm 0 mps 699 mmHg 80%
01:00 +21°C° 0 mm 1 mps 698 mmHg 81%
02:00 +21°C° 0 mm 1 mps 698 mmHg 83%
03:00 +21°C° 0 mm 1 mps 698 mmHg 85%
04:00 +21°C° 0 mm 1 mps 698 mmHg 86%
05:00 +21°C° 0 mm 1 mps 699 mmHg 87%
06:00 +21°C° 0 mm 1 mps 699 mmHg 88%
07:00 +23°C° 0 mm 1 mps 699 mmHg 79%
08:00 +25°C° 0 mm 2 mps 700 mmHg 70%
09:00 +27°C° 0 mm 2 mps 701 mmHg 62%
10:00 +28°C° 0 mm 2 mps 700 mmHg 57%
11:00 +29°C° 0 mm 2 mps 700 mmHg 53%
12:00 +30°C° 0 mm 2 mps 700 mmHg 49%
13:00 +30°C° 0 mm 2 mps 699 mmHg 51%
14:00 +30°C° 0 mm 2 mps 699 mmHg 53%
15:00 +30°C° 0 mm 2 mps 698 mmHg 55%
16:00 +28°C° 0 mm 2 mps 698 mmHg 60%
17:00 +27°C° 0 mm 1 mps 698 mmHg 64%
18:00 +26°C° 0 mm 1 mps 697 mmHg 69%
19:00 +25°C° 0 mm 1 mps 698 mmHg 71%
20:00 +24°C° 0 mm 1 mps 698 mmHg 74%
21:00 +23°C° 0 mm 1 mps 698 mmHg 76%
22:00 +22°C° 0 mm 1 mps 698 mmHg 79%
23:00 +22°C° 0 mm 1 mps 698 mmHg 81%
Show more